Regional Weather Roundup
Issued by NWS

Home | Current Version | Previous Version | Graphics & Text | Print | Product List | Glossary On
Versions: 1 2 3 4 5 6 7 8 9 10 11 12 13 14 15 16 17 18 19 20 21 22 23 24 25 26 27 28 29 30 31 32 33 34 35 36 37 38 39 40 41 42 43 44 45 46 47 48 49 50
242
ASUS43 KMKX 241259
RWRWI

WISCONSIN REGIONAL WEATHER ROUNDUP
NATIONAL WEATHER SERVICE MILWAUKEE/SULLIVAN WI
700 AM CST SAT FEB 24 2018

NOTE: "FAIR" INDICATES FEW OR NO CLOUDS BELOW 12,000 FEET WITH NO
SIGNIFICANT WEATHER AND/OR OBSTRUCTIONS TO VISIBILITY.

WIZ001-002-006>008-014>016-023>028-241400-
NORTHWEST WISCONSIN

CITY           SKY/WX    TMP DP  RH WIND       PRES   REMARKS
SUPERIOR ARPT  FAIR      -1  -4  87 S5        30.20F WCI -12
ASHLAND        FAIR       7   4  87 W3        30.19F FOG
HAYWARD        MOCLDY    -1  -6  79 CALM      30.18R
SIREN          FAIR      -1  -6  82 CALM      30.19F
CUMBERLAND     FOG        1  -4  78 CALM      30.16F VSB<1/4
RICE LAKE      FOG        7   4  90 CALM      30.19F VSB<1/4
CHETEK         FOG       10   8  91 E3        30.19F VSB 1/4
LADYSMITH      SNOW      10   8  89 CALM      30.20S VSB 1/4
EAU CLAIRE     CLOUDY    11   9  92 NE3       30.19F FOG
MENOMONIE      SNOW       9   6  89 CALM      30.19F VSB<1/4
NEW RICHMOND   HAZE       0  -4  82 CALM      30.16F VSB 1/4
OSCEOLA        FOG        2  -2  84 CALM      30.21F VSB 1
$$

WIZ003>005-009-010-017-018-241400-
NORTH CENTRAL WISCONSIN

CITY           SKY/WX    TMP DP  RH WIND       PRES   REMARKS
MANITOWISH WTR FOG        6   5  96 CALM      30.16S VSB 1/2
ARBOR VITAE    FOG       13  10  90 CALM      30.15F VSB 1/4
WOODRUFF       FOG       13  10  90 CALM      30.15F VSB 1/4
RHINELANDER    FOG        9   7  92 W3        30.17R VSB<1/4
EAGLE RIVER    FOG        8   5  86 CALM      30.16S VSB<1/4
LAND O LAKES   FOG        6   3  88 CALM      30.17S VSB<1/4
PHILLIPS       FOG        6   5  92 CALM      30.16F VSB 1/2
TOMAHAWK       CLOUDY     5   2  88 CALM      30.18S FOG
MEDFORD        FOG       10   7  89 CALM      30.17S VSB<1/4
MERRILL        FOG       13  11  92 CALM      30.20S VSB<1/4
$$

WIZ029-030-035-036-043>047-241400-
CENTRAL WISCONSIN

CITY           SKY/WX    TMP DP  RH WIND       PRES   REMARKS
WAUSAU         FOG       18  16  92 CALM      30.18F VSB<1/4
MOSINEE        FOG       16  16 100 CALM      30.20F VSB 1/8
MARSHFIELD     FOG       16  14  92 E5        30.17S VSB<1/4 WCI   9
STEVENS POINT  FAIR      12  12  98 CALM      30.21F FOG
WAUPACA        FAIR      22  19  89 CALM      30.23S FOG
WAUTOMA        FAIR      19  18  95 NE5       30.21F FOG     WCI  12
WISC RAPIDS    CLOUDY    16  12  84 CALM      30.20F FOG
CAMP DOUGLAS   FAIR      15  14  94 CALM      30.17F
$$

WIZ011>013-019>022-031-037>040-048>050-241400-
NORTHEAST WISCONSIN

CITY           SKY/WX    TMP DP  RH WIND       PRES   REMARKS
ANTIGO         FOG       12  10  93 CALM      30.18F VSB<1/4
SHAWANO        FAIR      25  22  89 CALM      30.22S
OCONTO         FAIR      25  24  94 CALM      30.23F
STURGEON BAY   FAIR      28  22  78 CALM      30.24F
GREEN BAY      CLOUDY    28  22  78 SE3       30.23F
MANITOWOC      CLOUDY    31  24  75 NE3       30.25S
APPLETON       MOCLDY    23  19  86 CALM      30.21S
CLINTONVILLE   FAIR      23  21  91 CALM      30.23S FOG
OSHKOSH        FAIR      25  20  81 E3        30.22S
$$

WIZ032>034-041-042-053>061-241400-
SOUTHWEST WISCONSIN

CITY           SKY/WX    TMP DP  RH WIND       PRES   REMARKS
LA CROSSE      FAIR      18  15  88 NW3       30.17F FOG
SPARTA         FAIR      14  13  95 CALM      30.19F FOG
VIROQUA        FAIR      22  22 100 E8        30.13F WCI  12
BOSCOBEL       CLOUDY    24  21  88 NE5       30.17F FOG     WCI  18
PRAIRIE DU CHI CLOUDY    26  21  83 E6        30.16F WCI  19
PLATTEVILLE    FAIR      28  27  98 E13       30.14F WCI  17
$$

WIZ056-057-062-063-064-067-068-241400-
SOUTH CENTRAL WISCONSIN

CITY           SKY/WX    TMP DP  RH WIND       PRES   REMARKS
REEDSBURG      FAIR      21  21 100 CALM      30.18S FOG
BARABOO/DELLS  FAIR      23  21  94 NE5       30.18F FOG     WCI  17
LONE ROCK      NOT AVBL
MINERAL POINT  MOCLDY    28  28 100 E13       30.13F WCI  18
MADISON        MOCLDY    27  23  85 E9        30.18F WCI  18
MIDDLETON      CLOUDY    28  25  86 E9        30.18S WCI  20
WATERTOWN      CLOUDY    28  25  89 E7        30.19F WCI  20
MONROE         CLOUDY    28  27  93 E13       30.15S WCI  18
JANESVILLE     CLOUDY    30  30 100 E13       30.17F WCI  20
$$

WIZ051-052-058>065-066-070>072-241400-
SOUTHEAST WISCONSIN

CITY           SKY/WX    TMP DP  RH WIND       PRES   REMARKS
MILWAUKEE      CLOUDY    33  26  75 E12       30.21F WCI  24
WAUKESHA       CLOUDY    28  23  80 E7        30.20F WCI  21
MILWAUKEE/TIMM CLOUDY    32  23  69 E5        30.23S WCI  27
RACINE         CLOUDY    33  27  78 NE10      30.21F WCI  25
BURLINGTON     CLOUDY    30  26  84 E8        30.19F WCI  22
KENOSHA        CLOUDY    32  26  78 E16       30.19F WCI  21
FOND DU LAC    FAIR      27  20  75 E5        30.22S WCI  22
SHEBOYGAN      CLOUDY    27  25  92 CALM      30.23R
WEST BEND      CLOUDY    28  27  93 NE5       30.21F WCI  23
JUNEAU         FAIR      25  22  89 NE5       30.21F WCI  19
$$

LSZ147-162-241400-
LAKE SUPERIOR

STATION/POSITION TIME  TEMP    WIND        PRES    WAVE
                       AIR SEA DIR/SP/G            HT/PER
                 (UTC) (F)     (DEG/KT/KT) (MB)    (FT/S)
DEVILS ISLAND    1200   19     220/  5/  6 1023.9S
SAXON HARBOR     1140   10     200/  4/  4 1022.4F
$$

LMZ867-665-643>646-241400-
LAKE MICHIGAN

STATION/POSITION TIME  TEMP    WIND        PRES    WAVE
                       AIR SEA DIR/SP/G            HT/PER
                 (UTC) (F)     (DEG/KT/KT) (MB)    (FT/S)
NORTHPORT PIER   1240   30                 1024.0R
KEWAUNEE LAKESHO 1230   31     110/  5/  7 1023.3F
SHEBOYGAN LAKESH 1200   32      50/  9/ 10 1024.3F
PORT WASHINGTON  1140   31      30/  4/  7 1025.1F
KENOSHA   LAKESH 1200   33      60/ 11/ 13 1022.7
$$

TC  - TEMPERATURE IN CELSIUS
VSB - VISIBILITY IN STATUTE MILES
WCI - WIND CHILL INDEX
HX  - HEAT INDEX





USA.gov is the U.S. government's official web portal to all federal, state and local government web resources and services.